Time,TemperatureF,DewpointF,PressureIn,WindDirection,WindDirectionDegrees,WindSpeedMPH,WindSpeedGustMPH,Humidity,HourlyPrecipIn,Conditions,Clouds,dailyrainin,SoftwareType,DateUTC
2013-07-30 00:00:00,69.4,68.2,29.95,East,92,0.0,0.0,96,0.00,,---,0.14,VWS V14.00,2013-07-30 04:00:00,
2013-07-30 00:01:00,69.4,68.2,29.95,East,90,0.0,0.0,96,0.00,,---,0.14,VWS V14.00,2013-07-30 04:01:00,
2013-07-30 00:02:00,69.4,68.2,29.95,East,86,0.0,0.0,96,0.00,,---,0.14,VWS V14.00,2013-07-30 04:02:00,
2013-07-30 00:07:00,69.3,68.1,29.95,East,89,0.0,0.0,96,0.00,,---,0.00,VWS V14.00,2013-07-30 04:07:00,
2013-07-30 00:12:00,69.1,67.9,29.95,East,96,0.0,0.0,96,0.00,,---,0.00,VWS V14.00,2013-07-30 04:12:00,
2013-07-30 00:17:00,68.9,67.7,29.95,East,96,0.0,0.0,96,0.00,,---,0.00,VWS V14.00,2013-07-30 04:17:00,
2013-07-30 00:22:00,68.6,67.4,29.95,East,96,0.0,0.0,96,0.00,,---,0.00,VWS V14.00,2013-07-30 04:22:00,
2013-07-30 00:27:00,68.4,67.2,29.95,East,96,0.0,0.0,96,0.00,,---,0.00,VWS V14.00,2013-07-30 04:27:00,
2013-07-30 00:32:00,68.1,66.9,29.96,East,96,0.0,0.0,96,0.00,,---,0.00,VWS V14.00,2013-07-30 04:32:00,
2013-07-30 00:37:00,67.9,66.7,29.96,East,95,0.0,0.0,96,0.00,,---,0.00,VWS V14.00,2013-07-30 04:37:00,
2013-07-30 00:42:00,67.8,66.6,29.96,East,95,0.0,0.0,96,0.00,,---,0.00,VWS V14.00,2013-07-30 04:42:00,
2013-07-30 00:47:00,67.6,66.1,29.96,East,95,0.0,0.0,95,0.00,,---,0.00,VWS V14.00,2013-07-30 04:47:00,
2013-07-30 00:52:00,67.3,66.1,29.96,East,93,0.0,0.0,96,0.00,,---,0.00,VWS V14.00,2013-07-30 04:52:00,
2013-07-30 00:57:00,67.1,65.9,29.96,East,93,0.0,1.0,96,0.00,,---,0.00,VWS V14.00,2013-07-30 04:57:00,
2013-07-30 01:02:00,66.9,65.7,29.96,East,93,0.0,0.0,96,0.00,,---,0.00,VWS V14.00,2013-07-30 05:02:00,
2013-07-30 01:07:00,66.8,65.6,29.96,East,92,0.0,0.0,96,0.00,,---,0.00,VWS V14.00,2013-07-30 05:07:00,
2013-07-30 01:12:00,66.6,65.4,29.96,East,92,0.0,0.0,96,0.00,,---,0.00,VWS V14.00,2013-07-30 05:12:00,
2013-07-30 01:17:00,66.6,65.7,29.95,East,90,0.0,0.0,97,0.00,,---,0.00,VWS V14.00,2013-07-30 05:17:00,
2013-07-30 01:22:00,66.4,65.5,29.95,East,90,0.0,0.0,97,0.00,,---,0.00,VWS V14.00,2013-07-30 05:22:00,
2013-07-30 01:27:00,66.3,65.4,29.95,East,90,0.0,1.0,97,0.00,,---,0.00,VWS V14.00,2013-07-30 05:27:00,
2013-07-30 01:32:00,66.1,65.2,29.96,East,90,0.0,0.0,97,0.00,,---,0.00,VWS V14.00,2013-07-30 05:32:00,
2013-07-30 01:37:00,66.0,65.1,29.96,NNE,27,0.0,0.0,97,0.00,,---,0.00,VWS V14.00,2013-07-30 05:37:00,
2013-07-30 01:43:00,65.8,64.9,29.96,East,86,0.0,0.0,97,0.00,,---,0.00,VWS V14.00,2013-07-30 05:43:00,
2013-07-30 01:48:00,65.8,64.9,29.96,East,86,0.0,0.0,97,0.00,,---,0.00,VWS V14.00,2013-07-30 05:48:00,
2013-07-30 01:53:00,65.6,64.7,29.96,East,88,0.0,0.0,97,0.00,,---,0.00,VWS V14.00,2013-07-30 05:53:00,
2013-07-30 01:58:00,65.5,64.6,29.96,East,88,0.0,0.0,97,0.00,,---,0.00,VWS V14.00,2013-07-30 05:58:00,
2013-07-30 02:03:00,65.5,64.6,29.96,East,88,0.0,0.0,97,0.00,,---,0.00,VWS V14.00,2013-07-30 06:03:00,
2013-07-30 02:08:00,65.3,64.4,29.96,East,88,0.0,0.0,97,0.00,,---,0.00,VWS V14.00,2013-07-30 06:08:00,
2013-07-30 02:13:00,65.2,64.3,29.96,East,89,0.0,0.0,97,0.00,,---,0.00,VWS V14.00,2013-07-30 06:13:00,
2013-07-30 02:18:00,65.0,63.8,29.96,East,89,0.0,0.0,96,0.00,,---,0.00,VWS V14.00,2013-07-30 06:18:00,
2013-07-30 02:23:00,64.7,63.5,29.96,East,89,0.0,0.0,96,0.00,,---,0.00,VWS V14.00,2013-07-30 06:23:00,
2013-07-30 02:28:00,64.5,63.3,29.96,East,89,0.0,0.0,96,0.00,,---,0.00,VWS V14.00,2013-07-30 06:28:00,
2013-07-30 02:33:00,64.5,63.3,29.96,East,92,0.0,0.0,96,0.00,,---,0.00,VWS V14.00,2013-07-30 06:33:00,
2013-07-30 02:38:00,64.3,63.1,29.96,East,95,0.0,0.0,96,0.00,,---,0.00,VWS V14.00,2013-07-30 06:38:00,
2013-07-30 02:43:00,64.2,63.0,29.96,East,95,0.0,0.0,96,0.00,,---,0.00,VWS V14.00,2013-07-30 06:43:00,
2013-07-30 02:48:00,64.0,62.8,29.96,East,95,0.0,0.0,96,0.00,,---,0.00,VWS V14.00,2013-07-30 06:48:00,
2013-07-30 02:53:00,64.0,62.8,29.96,East,95,0.0,0.0,96,0.00,,---,0.00,VWS V14.00,2013-07-30 06:53:00,
2013-07-30 02:58:00,63.9,62.7,29.96,East,95,0.0,0.0,96,0.00,,---,0.00,VWS V14.00,2013-07-30 06:58:00,
2013-07-30 03:03:00,63.7,62.5,29.96,East,95,0.0,0.0,96,0.00,,---,0.00,VWS V14.00,2013-07-30 07:03:00,
2013-07-30 03:08:00,63.7,62.5,29.96,East,96,0.0,0.0,96,0.00,,---,0.00,VWS V14.00,2013-07-30 07:08:00,
2013-07-30 03:13:00,63.5,62.3,29.96,East,96,0.0,0.0,96,0.00,,---,0.00,VWS V14.00,2013-07-30 07:13:00,
2013-07-30 03:18:00,63.4,62.2,29.96,East,96,0.0,0.0,96,0.00,,---,0.00,VWS V14.00,2013-07-30 07:18:00,
2013-07-30 03:23:00,63.2,62.0,29.96,East,96,0.0,0.0,96,0.00,,---,0.00,VWS V14.00,2013-07-30 07:23:00,
2013-07-30 03:28:00,63.2,62.0,29.96,East,96,0.0,0.0,96,0.00,,---,0.00,VWS V14.00,2013-07-30 07:28:00,
2013-07-30 03:33:00,62.9,61.8,29.96,East,96,0.0,0.0,96,0.00,,---,0.00,VWS V14.00,2013-07-30 07:33:00,
2013-07-30 03:38:00,62.9,61.8,29.96,East,96,0.0,0.0,96,0.00,,---,0.00,VWS V14.00,2013-07-30 07:38:00,
2013-07-30 03:43:00,62.7,61.5,29.96,East,96,0.0,0.0,96,0.00,,---,0.00,VWS V14.00,2013-07-30 07:43:00,
2013-07-30 03:48:00,62.6,61.7,29.97,East,96,0.0,0.0,97,0.00,,---,0.00,VWS V14.00,2013-07-30 07:48:00,
2013-07-30 03:53:00,62.4,61.5,29.97,East,96,0.0,0.0,97,0.00,,---,0.00,VWS V14.00,2013-07-30 07:53:00,
2013-07-30 03:58:00,62.4,61.5,29.97,East,96,0.0,0.0,97,0.00,,---,0.00,VWS V14.00,2013-07-30 07:58:00,
2013-07-30 04:03:00,62.3,61.4,29.96,East,96,0.0,0.0,97,0.00,,---,0.00,VWS V14.00,2013-07-30 08:03:00,
2013-07-30 04:08:00,62.1,61.2,29.96,East,96,0.0,0.0,97,0.00,,---,0.00,VWS V14.00,2013-07-30 08:08:00,
2013-07-30 04:13:00,62.0,61.1,29.96,East,96,0.0,0.0,97,0.00,,---,0.00,VWS V14.00,2013-07-30 08:13:00,
2013-07-30 04:18:00,61.8,60.9,29.97,East,96,0.0,0.0,97,0.00,,---,0.00,VWS V14.00,2013-07-30 08:18:00,
2013-07-30 04:23:00,61.6,60.7,29.97,East,96,0.0,0.0,97,0.00,,---,0.00,VWS V14.00,2013-07-30 08:23:00,
2013-07-30 04:28:00,61.6,60.7,29.97,East,96,0.0,0.0,97,0.00,,---,0.00,VWS V14.00,2013-07-30 08:28:00,
2013-07-30 04:33:00,61.5,60.6,29.97,East,96,0.0,0.0,97,0.00,,---,0.00,VWS V14.00,2013-07-30 08:33:00,
2013-07-30 04:38:00,61.3,60.4,29.97,East,95,0.0,0.0,97,0.00,,---,0.00,VWS V14.00,2013-07-30 08:38:00,
2013-07-30 04:43:00,61.3,60.4,29.97,East,95,0.0,0.0,97,0.00,,---,0.00,VWS V14.00,2013-07-30 08:43:00,
2013-07-30 04:48:00,61.2,60.0,29.97,East,95,0.0,0.0,96,0.00,,---,0.00,VWS V14.00,2013-07-30 08:48:00,
2013-07-30 04:53:00,61.2,60.0,29.97,East,93,0.0,0.0,96,0.00,,---,0.00,VWS V14.00,2013-07-30 08:53:00,
2013-07-30 04:58:00,61.0,59.9,29.97,East,93,0.0,0.0,96,0.00,,---,0.00,VWS V14.00,2013-07-30 08:58:00,
2013-07-30 05:03:00,61.0,59.9,29.97,East,93,0.0,0.0,96,0.00,,---,0.00,VWS V14.00,2013-07-30 09:03:00,
2013-07-30 05:08:00,61.0,59.9,29.97,East,92,0.0,0.0,96,0.00,,---,0.00,VWS V14.00,2013-07-30 09:08:00,
2013-07-30 05:13:00,60.9,59.8,29.97,East,92,0.0,0.0,96,0.00,,---,0.00,VWS V14.00,2013-07-30 09:13:00,
2013-07-30 05:18:00,60.7,59.6,29.97,East,86,0.0,0.0,96,0.00,,---,0.00,VWS V14.00,2013-07-30 09:18:00,
2013-07-30 05:23:00,60.7,59.6,29.97,East,85,0.0,0.0,96,0.00,,---,0.00,VWS V14.00,2013-07-30 09:23:00,
2013-07-30 05:28:00,60.5,59.4,29.97,East,86,0.0,0.0,96,0.00,,---,0.00,VWS V14.00,2013-07-30 09:28:00,
2013-07-30 05:33:00,60.4,59.3,29.97,East,83,0.0,0.0,96,0.00,,---,0.00,VWS V14.00,2013-07-30 09:33:00,
2013-07-30 05:38:00,60.2,58.8,29.97,East,83,0.0,0.0,95,0.00,,---,0.00,VWS V14.00,2013-07-30 09:38:00,
2013-07-30 05:43:00,60.1,58.7,29.97,East,85,0.0,0.0,95,0.00,,---,0.00,VWS V14.00,2013-07-30 09:43:00,
2013-07-30 05:48:00,60.2,59.1,29.98,East,83,0.0,0.0,96,0.00,,---,0.00,VWS V14.00,2013-07-30 09:48:00,
2013-07-30 05:53:00,60.1,58.7,29.98,East,85,0.0,0.0,95,0.00,,---,0.00,VWS V14.00,2013-07-30 09:53:00,
2013-07-30 05:58:00,59.9,58.5,29.98,East,83,0.0,0.0,95,0.00,,---,0.00,VWS V14.00,2013-07-30 09:58:00,
2013-07-30 06:04:00,59.9,58.5,29.98,East,83,0.0,0.0,95,0.00,,---,0.00,VWS V14.00,2013-07-30 10:04:00,
2013-07-30 06:09:00,59.9,58.5,29.98,East,85,0.0,0.0,95,0.00,,---,0.00,VWS V14.00,2013-07-30 10:09:00,
2013-07-30 06:14:00,59.8,58.1,29.98,East,85,0.0,0.0,94,0.00,,---,0.00,VWS V14.00,2013-07-30 10:14:00,
2013-07-30 06:19:00,59.9,58.5,29.99,East,83,0.0,0.0,95,0.00,,---,0.00,VWS V14.00,2013-07-30 10:19:00,
2013-07-30 06:24:00,59.9,58.2,29.99,East,85,0.0,0.0,94,0.00,,---,0.00,VWS V14.00,2013-07-30 10:24:00,
2013-07-30 06:29:00,59.9,58.2,29.99,East,85,0.0,0.0,94,0.00,,---,0.00,VWS V14.00,2013-07-30 10:29:00,
2013-07-30 06:34:00,60.1,58.7,29.99,East,85,0.0,0.0,95,0.00,,---,0.00,VWS V14.00,2013-07-30 10:34:00,
2013-07-30 06:39:00,60.1,58.4,29.99,East,85,0.0,0.0,94,0.00,,---,0.00,VWS V14.00,2013-07-30 10:39:00,
2013-07-30 06:44:00,60.1,58.4,29.99,East,83,0.0,0.0,94,0.00,,---,0.00,VWS V14.00,2013-07-30 10:44:00,
2013-07-30 06:49:00,60.2,58.5,29.99,East,80,0.0,0.0,94,0.00,,---,0.00,VWS V14.00,2013-07-30 10:49:00,
2013-07-30 06:54:00,60.5,58.8,29.99,East,99,0.0,1.0,94,0.00,,---,0.00,VWS V14.00,2013-07-30 10:54:00,
2013-07-30 06:59:00,60.9,59.2,29.99,East,99,0.0,1.0,94,0.00,,---,0.00,VWS V14.00,2013-07-30 10:59:00,
2013-07-30 07:04:00,61.0,59.3,29.99,East,99,0.0,0.0,94,0.00,,---,0.00,VWS V14.00,2013-07-30 11:04:00,
2013-07-30 07:09:00,61.2,59.5,29.99,East,97,0.0,1.0,94,0.00,,---,0.00,VWS V14.00,2013-07-30 11:09:00,
2013-07-30 07:14:00,61.2,59.5,29.99,East,97,0.0,1.0,94,0.00,,---,0.00,VWS V14.00,2013-07-30 11:14:00,
2013-07-30 07:19:00,61.3,59.3,29.99,East,97,0.0,1.0,93,0.00,,---,0.00,VWS V14.00,2013-07-30 11:19:00,
2013-07-30 07:24:00,61.6,59.0,29.99,East,97,0.0,1.0,91,0.00,,---,0.00,VWS V14.00,2013-07-30 11:24:00,
2013-07-30 07:29:00,61.8,59.2,29.99,East,96,0.0,1.0,91,0.00,,---,0.00,VWS V14.00,2013-07-30 11:29:00,
2013-07-30 07:34:00,62.3,58.7,29.99,East,99,0.0,1.0,88,0.00,,---,0.00,VWS V14.00,2013-07-30 11:34:00,
2013-07-30 07:39:00,62.9,59.0,29.99,North,359,0.0,3.0,87,0.00,,---,0.00,VWS V14.00,2013-07-30 11:39:00,
2013-07-30 07:44:00,63.4,59.2,29.99,North,0,0.0,3.0,86,0.00,,---,0.00,VWS V14.00,2013-07-30 11:44:00,
2013-07-30 07:49:00,63.7,59.8,30.00,North,0,0.0,3.0,87,0.00,,---,0.00,VWS V14.00,2013-07-30 11:49:00,
2013-07-30 07:54:00,64.2,58.6,30.00,North,11,0.0,3.0,82,0.00,,---,0.00,VWS V14.00,2013-07-30 11:54:00,
2013-07-30 07:59:00,64.5,58.9,30.00,NNE,13,0.0,3.0,82,0.00,,---,0.00,VWS V14.00,2013-07-30 11:59:00,
2013-07-30 08:04:00,65.0,59.7,30.00,ENE,61,0.0,1.0,83,0.00,,---,0.00,VWS V14.00,2013-07-30 12:04:00,
2013-07-30 08:09:00,65.3,59.0,30.00,ENE,62,0.0,1.0,80,0.00,,---,0.00,VWS V14.00,2013-07-30 12:09:00,
2013-07-30 08:14:00,65.8,59.1,30.00,ENE,68,0.0,1.0,79,0.00,,---,0.00,VWS V14.00,2013-07-30 12:14:00,
2013-07-30 08:19:00,66.4,59.0,30.00,North,4,0.0,2.0,77,0.00,,---,0.00,VWS V14.00,2013-07-30 12:19:00,
2013-07-30 08:24:00,66.9,59.5,30.00,ENE,71,0.0,2.0,77,0.00,,---,0.00,VWS V14.00,2013-07-30 12:24:00,
2013-07-30 08:29:00,67.3,59.5,30.00,ENE,73,0.0,2.0,76,0.00,,---,0.00,VWS V14.00,2013-07-30 12:29:00,
2013-07-30 08:34:00,67.4,60.0,30.00,WSW,253,0.0,1.0,77,0.00,,---,0.00,VWS V14.00,2013-07-30 12:34:00,
2013-07-30 08:39:00,67.8,60.0,30.00,NNW,343,0.0,1.0,76,0.00,,---,0.00,VWS V14.00,2013-07-30 12:39:00,
2013-07-30 08:44:00,68.4,59.0,30.00,WNW,298,0.0,4.0,72,0.00,,---,0.00,VWS V14.00,2013-07-30 12:44:00,
2013-07-30 08:49:00,69.1,59.3,30.00,North,359,0.0,4.0,71,0.00,,---,0.00,VWS V14.00,2013-07-30 12:49:00,
2013-07-30 08:54:00,69.8,59.6,30.00,ESE,114,0.0,6.0,70,0.00,,---,0.00,VWS V14.00,2013-07-30 12:54:00,
2013-07-30 08:59:00,69.9,58.5,30.00,North,353,0.0,6.0,67,0.00,,---,0.00,VWS V14.00,2013-07-30 12:59:00,
2013-07-30 09:04:00,70.3,59.7,30.00,NNW,344,0.0,3.0,69,0.00,,---,0.00,VWS V14.00,2013-07-30 13:04:00,
2013-07-30 09:09:00,70.6,59.1,30.00,NNW,346,0.0,6.0,67,0.00,,---,0.00,VWS V14.00,2013-07-30 13:09:00,
2013-07-30 09:15:00,70.9,59.4,30.00,North,357,6.0,6.0,67,0.00,,---,0.00,VWS V14.00,2013-07-30 13:15:00,
2013-07-30 09:20:00,70.9,59.0,30.00,North,352,0.0,6.0,66,0.00,,---,0.00,VWS V14.00,2013-07-30 13:20:00,
2013-07-30 09:25:00,71.6,59.2,30.00,NNW,346,1.0,7.0,65,0.00,,---,0.00,VWS V14.00,2013-07-30 13:25:00,
2013-07-30 09:30:00,72.0,59.6,30.00,SE,141,0.0,8.0,65,0.00,,---,0.00,VWS V14.00,2013-07-30 13:30:00,
2013-07-30 09:35:00,72.3,60.3,30.00,ESE,119,0.0,1.0,66,0.00,,---,0.00,VWS V14.00,2013-07-30 13:35:00,
2013-07-30 09:40:00,72.8,60.4,30.00,SE,143,0.0,3.0,65,0.00,,---,0.00,VWS V14.00,2013-07-30 13:40:00,
2013-07-30 09:45:00,73.0,59.2,30.00,NNW,329,0.0,4.0,62,0.00,,---,0.00,VWS V14.00,2013-07-30 13:45:00,
2013-07-30 09:50:00,73.5,59.2,30.00,SE,126,0.0,7.0,61,0.00,,---,0.00,VWS V14.00,2013-07-30 13:50:00,
2013-07-30 09:55:00,73.9,60.5,30.00,North,352,0.0,7.0,63,0.00,,---,0.00,VWS V14.00,2013-07-30 13:55:00,
2013-07-30 10:00:00,74.0,60.2,30.00,North,354,0.0,7.0,62,0.00,,---,0.00,VWS V14.00,2013-07-30 14:00:00,
2013-07-30 10:05:00,74.4,59.6,30.00,SSW,205,0.0,6.0,60,0.00,,---,0.00,VWS V14.00,2013-07-30 14:05:00,
2013-07-30 10:10:00,74.6,59.8,30.00,ESE,117,0.0,6.0,60,0.00,,---,0.00,VWS V14.00,2013-07-30 14:10:00,
2013-07-30 10:15:00,74.6,58.9,30.00,North,359,1.0,6.0,58,0.00,,---,0.00,VWS V14.00,2013-07-30 14:15:00,
2013-07-30 10:20:00,75.1,60.8,30.01,NNW,343,0.0,6.0,61,0.00,,---,0.00,VWS V14.00,2013-07-30 14:20:00,
2013-07-30 10:25:00,74.7,60.4,30.01,ESE,114,0.0,6.0,61,0.00,,---,0.00,VWS V14.00,2013-07-30 14:25:00,
2013-07-30 10:30:00,75.4,59.6,30.01,NNE,16,0.0,6.0,58,0.00,,---,0.00,VWS V14.00,2013-07-30 14:30:00,
2013-07-30 10:35:00,75.8,59.5,30.01,SW,234,1.0,6.0,57,0.00,,---,0.00,VWS V14.00,2013-07-30 14:35:00,
2013-07-30 10:40:00,75.8,61.4,30.01,NNW,347,1.0,6.0,61,0.00,,---,0.00,VWS V14.00,2013-07-30 14:40:00,
2013-07-30 10:45:00,76.1,59.8,30.01,SSW,202,1.0,6.0,57,0.00,,---,0.00,VWS V14.00,2013-07-30 14:45:00,
2013-07-30 10:50:00,76.8,61.4,30.01,NE,37,0.0,6.0,59,0.00,,---,0.00,VWS V14.00,2013-07-30 14:50:00,
2013-07-30 10:55:00,76.8,61.4,30.01,NNE,20,0.0,6.0,59,0.00,,---,0.00,VWS V14.00,2013-07-30 14:55:00,
2013-07-30 11:00:00,77.2,61.3,30.01,WSW,258,0.0,6.0,58,0.00,,---,0.00,VWS V14.00,2013-07-30 15:00:00,
2013-07-30 11:05:00,77.7,59.8,30.01,North,357,0.0,2.0,54,0.00,,---,0.00,VWS V14.00,2013-07-30 15:05:00,
2013-07-30 11:10:00,76.8,58.9,30.01,North,353,0.0,7.0,54,0.00,,---,0.00,VWS V14.00,2013-07-30 15:10:00,
2013-07-30 11:15:00,77.2,59.8,30.01,North,0,0.0,7.0,55,0.00,,---,0.00,VWS V14.00,2013-07-30 15:15:00,
2013-07-30 11:20:00,76.8,58.4,30.00,North,1,2.0,7.0,53,0.00,,---,0.00,VWS V14.00,2013-07-30 15:20:00,
2013-07-30 11:25:00,76.3,58.5,30.00,North,354,1.0,7.0,54,0.00,,---,0.00,VWS V14.00,2013-07-30 15:25:00,
2013-07-30 11:30:00,77.2,59.8,30.00,NE,40,1.0,7.0,55,0.00,,---,0.00,VWS V14.00,2013-07-30 15:30:00,
2013-07-30 11:35:00,77.7,59.2,30.00,South,181,0.0,7.0,53,0.00,,---,0.00,VWS V14.00,2013-07-30 15:35:00,
2013-07-30 11:40:00,78.8,59.2,30.00,West,278,1.0,7.0,51,0.00,,---,0.00,VWS V14.00,2013-07-30 15:40:00,
2013-07-30 11:45:00,78.6,59.0,30.00,NNW,344,0.0,7.0,51,0.00,,---,0.00,VWS V14.00,2013-07-30 15:45:00,
2013-07-30 11:50:00,78.1,59.1,30.00,NE,52,0.0,7.0,52,0.00,,---,0.00,VWS V14.00,2013-07-30 15:50:00,
2013-07-30 11:55:00,78.3,58.7,30.00,SSW,209,0.0,7.0,51,0.00,,---,0.00,VWS V14.00,2013-07-30 15:55:00,
2013-07-30 12:00:00,78.5,59.4,30.00,North,4,1.0,7.0,52,0.00,,---,0.00,VWS V14.00,2013-07-30 16:00:00,
2013-07-30 12:05:00,78.1,59.6,30.00,North,357,0.0,6.0,53,0.00,,---,0.00,VWS V14.00,2013-07-30 16:05:00,
2013-07-30 12:10:00,78.6,61.6,30.00,SW,217,0.0,6.0,56,0.00,,---,0.00,VWS V14.00,2013-07-30 16:10:00,
2013-07-30 12:15:00,79.2,59.5,30.00,NNW,330,1.0,6.0,51,0.00,,---,0.00,VWS V14.00,2013-07-30 16:15:00,
2013-07-30 12:20:00,79.6,59.3,30.00,NNW,339,0.0,6.0,50,0.00,,---,0.00,VWS V14.00,2013-07-30 16:20:00,
2013-07-30 12:25:00,79.2,59.0,30.00,SW,224,1.0,6.0,50,0.00,,---,0.00,VWS V14.00,2013-07-30 16:25:00,
2013-07-30 12:30:00,80.7,62.0,30.00,WSW,257,0.0,6.0,53,0.00,,---,0.00,VWS V14.00,2013-07-30 16:30:00,
2013-07-30 12:35:00,81.1,60.7,29.99,North,1,0.0,3.0,50,0.00,,---,0.00,VWS V14.00,2013-07-30 16:35:00,
2013-07-30 12:40:00,80.3,60.5,29.99,North,357,0.0,6.0,51,0.00,,---,0.00,VWS V14.00,2013-07-30 16:40:00,
2013-07-30 12:45:00,79.9,59.6,29.99,SW,227,1.0,6.0,50,0.00,,---,0.00,VWS V14.00,2013-07-30 16:45:00,
2013-07-30 12:51:00,79.6,59.9,29.99,NNW,343,0.0,6.0,51,0.00,,---,0.00,VWS V14.00,2013-07-30 16:51:00,
2013-07-30 12:56:00,79.9,58.5,29.99,North,8,0.0,8.0,48,0.00,,---,0.00,VWS V14.00,2013-07-30 16:56:00,
2013-07-30 13:01:00,80.3,58.8,29.99,WNW,289,2.0,8.0,48,0.00,,---,0.00,VWS V14.00,2013-07-30 17:01:00,
2013-07-30 13:06:00,80.7,57.4,29.99,North,7,1.0,4.0,45,0.00,,---,0.00,VWS V14.00,2013-07-30 17:06:00,
2013-07-30 13:11:00,80.9,59.4,29.99,North,0,0.0,4.0,48,0.00,,---,0.00,VWS V14.00,2013-07-30 17:11:00,
2013-07-30 13:16:00,80.1,58.7,29.99,North,359,0.0,5.0,48,0.00,,---,0.00,VWS V14.00,2013-07-30 17:16:00,
2013-07-30 13:21:00,80.3,58.2,29.99,WNW,289,0.0,8.0,47,0.00,,---,0.00,VWS V14.00,2013-07-30 17:21:00,
2013-07-30 13:26:00,79.9,57.9,29.99,NNW,344,5.0,8.0,47,0.00,,---,0.00,VWS V14.00,2013-07-30 17:26:00,
2013-07-30 13:31:00,79.8,58.4,29.99,SSW,205,1.0,8.0,48,0.00,,---,0.00,VWS V14.00,2013-07-30 17:31:00,
2013-07-30 13:36:00,80.5,59.6,29.98,North,6,0.0,4.0,49,0.00,,---,0.00,VWS V14.00,2013-07-30 17:36:00,
2013-07-30 13:41:00,81.1,58.4,29.98,WSW,237,0.0,5.0,46,0.00,,---,0.00,VWS V14.00,2013-07-30 17:41:00,
2013-07-30 13:46:00,81.2,59.1,29.98,WSW,250,1.0,7.0,47,0.00,,---,0.00,VWS V14.00,2013-07-30 17:46:00,
2013-07-30 13:52:00,81.1,57.8,29.98,SW,219,2.0,7.0,45,0.00,,---,0.00,VWS V14.00,2013-07-30 17:52:00,
2013-07-30 13:57:00,81.6,58.8,29.98,WSW,244,1.0,7.0,46,0.00,,---,0.00,VWS V14.00,2013-07-30 17:57:00,
2013-07-30 14:02:00,80.9,58.8,29.98,WSW,246,2.0,7.0,47,0.00,,---,0.00,VWS V14.00,2013-07-30 18:02:00,
2013-07-30 14:07:00,81.4,58.0,29.98,WSW,241,0.0,10.0,45,0.00,,---,0.00,VWS V14.00,2013-07-30 18:07:00,
2013-07-30 14:12:00,82.6,57.9,29.98,WSW,247,0.0,10.0,43,0.00,,---,0.00,VWS V14.00,2013-07-30 18:12:00,
2013-07-30 14:17:00,82.6,57.2,29.98,West,265,0.0,10.0,42,0.00,,---,0.00,VWS V14.00,2013-07-30 18:17:00,
2013-07-30 14:22:00,82.0,58.0,29.98,NW,320,0.0,10.0,44,0.00,,---,0.00,VWS V14.00,2013-07-30 18:22:00,
2013-07-30 14:27:00,82.2,60.0,29.98,North,359,3.0,10.0,47,0.00,,---,0.00,VWS V14.00,2013-07-30 18:27:00,
2013-07-30 14:32:00,81.8,57.8,29.98,North,350,0.0,2.0,44,0.00,,---,0.00,VWS V14.00,2013-07-30 18:32:00,
2013-07-30 14:37:00,80.9,60.5,29.98,NNE,28,2.0,4.0,50,0.00,,---,0.00,VWS V14.00,2013-07-30 18:37:00,
2013-07-30 14:42:00,80.3,59.4,29.98,ENE,64,0.0,4.0,49,0.00,,---,0.00,VWS V14.00,2013-07-30 18:42:00,
2013-07-30 14:47:00,80.3,60.0,29.97,ENE,64,0.0,4.0,50,0.00,,---,0.00,VWS V14.00,2013-07-30 18:47:00,
2013-07-30 14:52:00,81.1,61.8,29.97,ENE,71,0.0,4.0,52,0.00,,---,0.00,VWS V14.00,2013-07-30 18:52:00,
2013-07-30 14:57:00,81.8,57.8,29.97,NE,54,0.0,4.0,44,0.00,,---,0.00,VWS V14.00,2013-07-30 18:57:00,
2013-07-30 15:02:00,82.2,61.2,29.97,NNE,23,1.0,2.0,49,0.00,,---,0.00,VWS V14.00,2013-07-30 19:02:00,
2013-07-30 15:07:00,81.8,58.4,29.97,North,6,0.0,8.0,45,0.00,,---,0.00,VWS V14.00,2013-07-30 19:07:00,
2013-07-30 15:12:00,82.6,57.2,29.97,ENE,75,2.0,8.0,42,0.00,,---,0.00,VWS V14.00,2013-07-30 19:12:00,
2013-07-30 15:17:00,82.2,57.5,29.96,North,359,2.0,10.0,43,0.00,,---,0.00,VWS V14.00,2013-07-30 19:17:00,
2013-07-30 15:22:00,82.4,58.3,29.96,WSW,244,1.0,10.0,44,0.00,,---,0.00,VWS V14.00,2013-07-30 19:22:00,
2013-07-30 15:27:00,81.8,57.1,29.96,ENE,76,0.0,10.0,43,0.00,,---,0.00,VWS V14.00,2013-07-30 19:27:00,
2013-07-30 15:33:00,82.4,60.2,29.96,NE,42,0.0,0.0,47,0.00,,---,0.00,VWS V14.00,2013-07-30 19:33:00,
2013-07-30 15:38:00,83.0,58.2,29.96,NNW,344,0.0,5.0,43,0.00,,---,0.00,VWS V14.00,2013-07-30 19:38:00,
2013-07-30 15:43:00,83.2,59.7,29.96,West,265,0.0,6.0,45,0.00,,---,0.00,VWS V14.00,2013-07-30 19:43:00,
2013-07-30 15:48:00,83.0,58.2,29.96,SW,236,0.0,6.0,43,0.00,,---,0.00,VWS V14.00,2013-07-30 19:48:00,
2013-07-30 15:53:00,83.0,60.1,29.96,NNE,13,1.0,6.0,46,0.00,,---,0.00,VWS V14.00,2013-07-30 19:53:00,
2013-07-30 15:58:00,82.4,59.0,29.96,WSW,253,3.0,6.0,45,0.00,,---,0.00,VWS V14.00,2013-07-30 19:58:00,
2013-07-30 16:03:00,82.6,59.1,29.95,SW,223,0.0,2.0,45,0.00,,---,0.00,VWS V14.00,2013-07-30 20:03:00,
2013-07-30 16:08:00,82.4,55.7,29.95,WSW,254,0.0,4.0,40,0.00,,---,0.00,VWS V14.00,2013-07-30 20:08:00,
2013-07-30 16:13:00,82.2,58.1,29.95,West,260,1.0,6.0,44,0.00,,---,0.00,VWS V14.00,2013-07-30 20:13:00,
2013-07-30 16:18:00,82.2,56.8,29.95,North,0,0.0,6.0,42,0.00,,---,0.00,VWS V14.00,2013-07-30 20:18:00,
2013-07-30 16:23:00,82.4,58.3,29.95,North,0,0.0,6.0,44,0.00,,---,0.00,VWS V14.00,2013-07-30 20:23:00,
2013-07-30 16:28:00,82.4,60.2,29.95,North,0,0.0,6.0,47,0.00,,---,0.00,VWS V14.00,2013-07-30 20:28:00,
2013-07-30 16:33:00,81.4,58.0,29.95,NNE,23,0.0,0.0,45,0.00,,---,0.00,VWS V14.00,2013-07-30 20:33:00,
2013-07-30 16:38:00,81.1,58.4,29.95,North,357,0.0,1.0,46,0.00,,---,0.00,VWS V14.00,2013-07-30 20:38:00,
2013-07-30 16:43:00,81.2,58.5,29.95,North,356,0.0,1.0,46,0.00,,---,0.00,VWS V14.00,2013-07-30 20:43:00,
2013-07-30 16:48:00,80.7,60.3,29.95,North,0,0.0,3.0,50,0.00,,---,0.00,VWS V14.00,2013-07-30 20:48:00,
2013-07-30 16:53:00,80.3,59.4,29.95,North,0,0.0,3.0,49,0.00,,---,0.00,VWS V14.00,2013-07-30 20:53:00,
2013-07-30 16:58:00,80.5,57.8,29.95,ENE,71,0.0,3.0,46,0.00,,---,0.00,VWS V14.00,2013-07-30 20:58:00,
2013-07-30 17:03:00,79.9,60.7,29.96,ENE,71,0.0,0.0,52,0.00,,---,0.00,VWS V14.00,2013-07-30 21:03:00,
2013-07-30 17:08:00,79.4,61.3,29.96,North,1,0.0,1.0,54,0.00,,---,0.00,VWS V14.00,2013-07-30 21:08:00,
2013-07-30 17:13:00,79.2,63.2,29.96,North,1,0.0,1.0,58,0.00,,---,0.00,VWS V14.00,2013-07-30 21:13:00,
2013-07-30 17:18:00,79.2,63.2,29.96,North,3,0.0,1.0,58,0.00,,---,0.00,VWS V14.00,2013-07-30 21:18:00,
2013-07-30 17:23:00,79.2,63.2,29.96,North,3,0.0,1.0,58,0.00,,---,0.00,VWS V14.00,2013-07-30 21:23:00,
2013-07-30 17:28:00,79.4,61.8,29.96,North,3,0.0,1.0,55,0.00,,---,0.00,VWS V14.00,2013-07-30 21:28:00,
2013-07-30 17:33:00,79.4,62.9,29.96,NE,45,0.0,0.0,57,0.00,,---,0.00,VWS V14.00,2013-07-30 21:33:00,
2013-07-30 17:38:00,79.4,62.3,29.96,NE,42,0.0,1.0,56,0.00,,---,0.00,VWS V14.00,2013-07-30 21:38:00,
2013-07-30 17:43:00,79.2,63.2,29.96,NE,44,0.0,1.0,58,0.00,,---,0.00,VWS V14.00,2013-07-30 21:43:00,
2013-07-30 17:48:00,78.8,63.3,29.96,NE,42,0.0,1.0,59,0.00,,---,0.00,VWS V14.00,2013-07-30 21:48:00,
2013-07-30 17:53:00,78.5,64.9,29.96,NE,52,0.0,1.0,63,0.00,,---,0.00,VWS V14.00,2013-07-30 21:53:00,
2013-07-30 17:58:00,78.1,64.5,29.96,NE,48,0.0,1.0,63,0.00,,---,0.00,VWS V14.00,2013-07-30 21:58:00,
2013-07-30 18:03:00,77.4,64.3,29.96,NE,51,0.0,0.0,64,0.00,,---,0.00,VWS V14.00,2013-07-30 22:03:00,
2013-07-30 18:08:00,76.5,63.9,29.96,NE,49,0.0,0.0,65,0.00,,---,0.00,VWS V14.00,2013-07-30 22:08:00,
2013-07-30 18:13:00,76.1,64.4,29.96,NE,47,0.0,0.0,67,0.00,,---,0.00,VWS V14.00,2013-07-30 22:13:00,
2013-07-30 18:18:00,76.1,64.4,29.96,NE,45,0.0,1.0,67,0.00,,---,0.00,VWS V14.00,2013-07-30 22:18:00,
2013-07-30 18:23:00,76.0,64.3,29.96,NE,45,0.0,1.0,67,0.00,,---,0.00,VWS V14.00,2013-07-30 22:23:00,
2013-07-30 18:28:00,76.0,64.3,29.96,NE,54,0.0,1.0,67,0.00,,---,0.00,VWS V14.00,2013-07-30 22:28:00,
2013-07-30 18:33:00,75.8,64.5,29.97,ENE,59,0.0,0.0,68,0.00,,---,0.00,VWS V14.00,2013-07-30 22:33:00,
2013-07-30 18:38:00,75.8,64.1,29.97,WSW,258,1.0,1.0,67,0.00,,---,0.00,VWS V14.00,2013-07-30 22:38:00,
2013-07-30 18:43:00,76.3,63.7,29.97,NW,320,0.0,6.0,65,0.00,,---,0.00,VWS V14.00,2013-07-30 22:43:00,
2013-07-30 18:48:00,76.5,63.4,29.97,SSW,205,0.0,6.0,64,0.00,,---,0.00,VWS V14.00,2013-07-30 22:48:00,
2013-07-30 18:53:00,76.7,63.2,29.97,SSW,203,0.0,6.0,63,0.00,,---,0.00,VWS V14.00,2013-07-30 22:53:00,
2013-07-30 18:58:00,76.8,63.3,29.97,SSW,203,0.0,6.0,63,0.00,,---,0.00,VWS V14.00,2013-07-30 22:58:00,
2013-07-30 19:03:00,76.5,63.9,29.98,SSW,203,0.0,0.0,65,0.00,,---,0.00,VWS V14.00,2013-07-30 23:03:00,
2013-07-30 19:08:00,76.1,63.5,29.98,North,349,0.0,1.0,65,0.00,,---,0.00,VWS V14.00,2013-07-30 23:08:00,
2013-07-30 19:13:00,76.0,64.3,29.98,North,349,0.0,1.0,67,0.00,,---,0.00,VWS V14.00,2013-07-30 23:13:00,
2013-07-30 19:18:00,75.8,63.6,29.98,North,349,0.0,1.0,66,0.00,,---,0.00,VWS V14.00,2013-07-30 23:18:00,
2013-07-30 19:23:00,75.4,64.9,29.98,North,349,0.0,1.0,70,0.00,,---,0.00,VWS V14.00,2013-07-30 23:23:00,
2013-07-30 19:29:00,75.1,64.2,29.98,NNW,347,0.0,1.0,69,0.00,,---,0.00,VWS V14.00,2013-07-30 23:29:00,
2013-07-30 19:34:00,74.4,64.8,29.99,NNW,346,0.0,0.0,72,0.00,,---,0.00,VWS V14.00,2013-07-30 23:34:00,
2013-07-30 19:39:00,73.7,64.1,29.99,NNW,344,0.0,0.0,72,0.00,,---,0.00,VWS V14.00,2013-07-30 23:39:00,
2013-07-30 19:44:00,73.2,64.4,29.99,NNW,333,0.0,0.0,74,0.00,,---,0.00,VWS V14.00,2013-07-30 23:44:00,
2013-07-30 19:49:00,72.8,64.8,29.99,NW,325,0.0,0.0,76,0.00,,---,0.00,VWS V14.00,2013-07-30 23:49:00,
2013-07-30 19:54:00,72.5,64.5,29.99,West,267,0.0,0.0,76,0.00,,---,0.00,VWS V14.00,2013-07-30 23:54:00,
2013-07-30 19:59:00,72.0,64.0,29.99,West,270,0.0,0.0,76,0.00,,---,0.00,VWS V14.00,2013-07-30 23:59:00,
2013-07-30 20:04:00,71.6,63.3,30.00,West,261,0.0,0.0,75,0.00,,---,0.00,VWS V14.00,2013-07-31 00:04:00,
2013-07-30 20:09:00,71.3,63.3,30.00,WSW,253,0.0,0.0,76,0.00,,---,0.00,VWS V14.00,2013-07-31 00:09:00,
2013-07-30 20:14:00,70.9,62.6,30.00,WSW,254,0.0,0.0,75,0.00,,---,0.00,VWS V14.00,2013-07-31 00:14:00,
2013-07-30 20:19:00,70.6,62.7,30.00,WSW,241,0.0,0.0,76,0.00,,---,0.00,VWS V14.00,2013-07-31 00:19:00,
2013-07-30 20:24:00,70.3,63.1,30.00,ESE,112,0.0,0.0,78,0.00,,---,0.00,VWS V14.00,2013-07-31 00:24:00,
2013-07-30 20:29:00,70.1,63.3,30.00,ESE,112,0.0,0.0,79,0.00,,---,0.00,VWS V14.00,2013-07-31 00:29:00,
2013-07-30 20:34:00,69.8,62.6,30.00,NNW,347,0.0,0.0,78,0.00,,---,0.00,VWS V14.00,2013-07-31 00:34:00,
2013-07-30 20:39:00,69.4,62.6,30.00,NNW,347,0.0,0.0,79,0.00,,---,0.00,VWS V14.00,2013-07-31 00:39:00,
2013-07-30 20:44:00,69.3,62.9,30.00,NNW,347,0.0,0.0,80,0.00,,---,0.00,VWS V14.00,2013-07-31 00:44:00,
2013-07-30 20:49:00,68.9,62.8,30.00,NNW,347,0.0,0.0,81,0.00,,---,0.00,VWS V14.00,2013-07-31 00:49:00,
2013-07-30 20:54:00,68.6,62.9,30.00,NNW,347,0.0,0.0,82,0.00,,---,0.00,VWS V14.00,2013-07-31 00:54:00,
2013-07-30 20:59:00,68.4,62.7,30.00,NNW,347,0.0,0.0,82,0.00,,---,0.00,VWS V14.00,2013-07-31 00:59:00,
2013-07-30 21:04:00,68.3,62.6,30.01,NNW,347,0.0,0.0,82,0.00,,---,0.00,VWS V14.00,2013-07-31 01:04:00,
2013-07-30 21:09:00,68.1,62.8,30.01,NNW,347,0.0,0.0,83,0.00,,---,0.00,VWS V14.00,2013-07-31 01:09:00,
2013-07-30 21:14:00,67.9,62.5,30.01,NNW,347,0.0,0.0,83,0.00,,---,0.00,VWS V14.00,2013-07-31 01:14:00,
2013-07-30 21:19:00,67.8,62.1,30.01,NNW,347,0.0,0.0,82,0.00,,---,0.00,VWS V14.00,2013-07-31 01:19:00,
2013-07-30 21:24:00,67.6,62.3,30.01,NNW,347,0.0,0.0,83,0.00,,---,0.00,VWS V14.00,2013-07-31 01:24:00,
2013-07-30 21:29:00,67.4,62.4,30.01,NNW,347,0.0,0.0,84,0.00,,---,0.00,VWS V14.00,2013-07-31 01:29:00,
2013-07-30 21:34:00,67.1,61.8,30.01,NNW,347,0.0,0.0,83,0.00,,---,0.00,VWS V14.00,2013-07-31 01:34:00,
2013-07-30 21:39:00,66.9,61.6,30.01,NNW,347,0.0,0.0,83,0.00,,---,0.00,VWS V14.00,2013-07-31 01:39:00,
2013-07-30 21:44:00,66.8,61.5,30.01,NNW,346,0.0,0.0,83,0.00,,---,0.00,VWS V14.00,2013-07-31 01:44:00,
2013-07-30 21:49:00,66.6,62.0,30.01,NNW,346,0.0,0.0,85,0.00,,---,0.00,VWS V14.00,2013-07-31 01:49:00,
2013-07-30 21:54:00,66.4,61.4,30.01,NNW,346,0.0,0.0,84,0.00,,---,0.00,VWS V14.00,2013-07-31 01:54:00,
2013-07-30 21:59:00,66.3,61.7,30.01,NNW,346,0.0,0.0,85,0.00,,---,0.00,VWS V14.00,2013-07-31 01:59:00,
2013-07-30 22:04:00,66.1,61.8,30.01,NNW,346,0.0,0.0,86,0.00,,---,0.00,VWS V14.00,2013-07-31 02:04:00,
2013-07-30 22:09:00,66.0,61.4,30.01,NNW,344,0.0,0.0,85,0.00,,---,0.00,VWS V14.00,2013-07-31 02:09:00,
2013-07-30 22:14:00,65.8,61.2,30.01,NNW,344,0.0,0.0,85,0.00,,---,0.00,VWS V14.00,2013-07-31 02:14:00,
2013-07-30 22:19:00,65.6,60.6,30.01,NNW,344,0.0,0.0,84,0.00,,---,0.00,VWS V14.00,2013-07-31 02:19:00,
2013-07-30 22:24:00,65.6,61.0,30.01,NNW,344,0.0,0.0,85,0.00,,---,0.00,VWS V14.00,2013-07-31 02:24:00,
2013-07-30 22:29:00,65.5,61.2,30.01,NNW,344,0.0,0.0,86,0.00,,---,0.00,VWS V14.00,2013-07-31 02:29:00,
2013-07-30 22:34:00,65.5,61.2,30.02,NNW,344,0.0,0.0,86,0.00,,---,0.00,VWS V14.00,2013-07-31 02:34:00,
2013-07-30 22:39:00,65.3,61.0,30.02,NNW,343,0.0,0.0,86,0.00,,---,0.00,VWS V14.00,2013-07-31 02:39:00,
2013-07-30 22:44:00,65.3,61.0,30.02,NNW,342,0.0,0.0,86,0.00,,---,0.00,VWS V14.00,2013-07-31 02:44:00,
2013-07-30 22:49:00,65.2,60.9,30.02,NNW,342,0.0,0.0,86,0.00,,---,0.00,VWS V14.00,2013-07-31 02:49:00,
2013-07-30 22:54:00,65.0,60.7,30.02,NNW,342,0.0,0.0,86,0.00,,---,0.00,VWS V14.00,2013-07-31 02:54:00,
2013-07-30 22:59:00,65.0,60.7,30.02,NNW,337,0.0,0.0,86,0.00,,---,0.00,VWS V14.00,2013-07-31 02:59:00,
2013-07-30 23:04:00,64.8,60.8,30.02,NW,305,0.0,0.0,87,0.00,,---,0.00,VWS V14.00,2013-07-31 03:04:00,
2013-07-30 23:09:00,64.7,60.8,30.02,NW,306,0.0,0.0,87,0.00,,---,0.00,VWS V14.00,2013-07-31 03:09:00,
2013-07-30 23:14:00,64.7,60.8,30.02,NW,309,0.0,0.0,87,0.00,,---,0.00,VWS V14.00,2013-07-31 03:14:00,
2013-07-30 23:19:00,64.5,60.5,30.01,NNW,347,0.0,0.0,87,0.00,,---,0.00,VWS V14.00,2013-07-31 03:19:00,
2013-07-30 23:24:00,64.5,60.2,30.01,NNW,347,0.0,0.0,86,0.00,,---,0.00,VWS V14.00,2013-07-31 03:24:00,
2013-07-30 23:29:00,64.3,60.3,30.01,NNW,347,0.0,0.0,87,0.00,,---,0.00,VWS V14.00,2013-07-31 03:29:00,
2013-07-30 23:34:00,64.3,60.3,30.01,NNW,347,0.0,0.0,87,0.00,,---,0.00,VWS V14.00,2013-07-31 03:34:00,
2013-07-30 23:39:00,64.2,60.6,30.01,NNW,347,0.0,0.0,88,0.00,,---,0.00,VWS V14.00,2013-07-31 03:39:00,
2013-07-30 23:44:00,64.2,60.3,30.01,NNW,347,0.0,0.0,87,0.00,,---,0.00,VWS V14.00,2013-07-31 03:44:00,
2013-07-30 23:49:00,64.0,60.4,30.01,NNW,347,0.0,0.0,88,0.00,,---,0.00,VWS V14.00,2013-07-31 03:49:00,
2013-07-30 23:54:00,64.0,60.4,30.01,NNW,347,0.0,0.0,88,0.00,,---,0.00,VWS V14.00,2013-07-31 03:54:00,
2013-07-30 23:59:00,64.0,60.7,30.01,NNW,347,0.0,0.0,89,0.00,,---,0.00,VWS V14.00,2013-07-31 03:59:00,